Location: Beuvrequen
(50.8014°N, 1.6652°E)
Time: 12:33:49
(UTC+00:00)

Cosmos 1844 - Pass Details

Date: 31 May 2022
Orbit: 821 x 869 km, 70.9° (Epoch: 03 July)

Event Time Altitude Azimuth Distance (km) Brightness Sun altitude
Rises 21:29:52 0° 329° (NNW) 3,465 9.2 -10.8°
Reaches altitude 10° 21:32:21 10° 329° (NNW) 2,525 7.8 -11.0°
Maximum altitude 21:38:11 84° 243° (WSW) 880 3.8 -11.5°
Enters shadow 21:42:55 16° 156° (SSE) 2,113 5.1 -11.9°
